[[{"header":{"parameterUnit":"m.s-1","parameterCategory":2,"la1":30.2991,"la2":30.254,"lo1":-89.0895,"lo2":-89.0444,"dy":0.0017,"dx":0.0017,"nx":28,"ny":28,"refTime":"2023-10-30T03:00:00:Z","depth":"0","parameterNumber":2,"parameterNumberName":"U-component_of_CURRENTS"},"data":[0,0,0,0,0,0,0,0,0,0,0,0,0,0,0,0,0,0,0,0,0,0,0,0,0,0,0,0,0,0,0,0,0,0,0,0,0,0,0,0,0,0,0,0,0,0,0,0,0,0,0,0,0,0,0,0,0,0,-0.206,-0.2061,0,-0.2126,-0.2127,-0.2127,-0.2115,-0.2114,-0.2113,-0.2113,-0.2172,-0.2174,-0.2177,0,0,0,0,0,0,0,0,0,0,0,0,0,-0.1959,-0.1961,-0.206,-0.2061,-0.2062,-0.2126,-0.2127,-0.2128,-0.2116,-0.2114,-0.2113,-0.2112,-0.2171,-0.2174,-0.2177,0,0,0,0,0,0,0,0,0,0,0,0,0,-0.201,-0.1961,-0.206,-0.2065,-0.2067,-0.2126,-0.2127,-0.2128,-0.2116,-0.2114,-0.2113,-0.2112,-0.217,-0.2174,-0.2177,-0.2229,0,0,-0.2189,-0.219,0,0,0,0,0,0,0,0,-0.2007,-0.2013,-0.2064,-0.2065,-0.2067,-0.2113,-0.2113,-0.2162,-0.2116,-0.2095,-0.2113,-0.2111,-0.2154,-0.2159,-0.2171,-0.2232,-0.2234,-0.2189,-0.2191,-0.2193,-0.2194,0,0,0,0,0,0,0,-0.2003,-0.201,-0.2084,-0.2065,-0.2067,-0.2078,-0.2083,-0.2123,-0.213,-0.2096,-0.2096,-0.2108,-0.2155,-0.2168,-0.2173,-0.2235,-0.2189,-0.2192,-0.2194,-0.2196,-0.243,-0.2434,0,0,0,0,0,0,-0.2,-0.2007,-0.2081,-0.2086,-0.2035,-0.2081,-0.2086,-0.2098,-0.2129,-0.2134,-0.2109,-0.2107,-0.2162,-0.2168,-0.2175,-0.2244,-0.2193,-0.2196,-0.2198,-0.2427,-0.2431,-0.2436,0,0,0,0,0,0,-0.1998,-0.2006,-0.2079,-0.205,-0.206,-0.2084,-0.2097,-0.21,-0.2105,-0.214,-0.2143,-0.211,-0.2161,-0.217,-0.2242,-0.2246,-0.2198,-0.2201,-0.2422,-0.2428,-0.2434,-0.2379,0,0,0,0,0,0,-0.1994,-0.2005,-0.2002,-0.205,-0.2062,-0.213,-0.2099,-0.2102,-0.2116,-0.2113,-0.2142,-0.2146,-0.2161,-0.2237,-0.2246,-0.225,-0.2204,-0.2417,-0.2425,-0.2432,-0.2375,-0.2382,-0.2388,0,0,0,0,0,-0.1991,-0.2006,-0.2001,-0.201,-0.206,-0.2132,-0.214,-0.215,-0.2117,-0.2142,-0.2171,-0.2145,-0.2291,-0.2243,-0.2252,-0.2258,-0.2413,-0.2422,-0.2431,-0.2373,-0.2381,-0.2388,0,0,0,0,0,0,-0.196,-0.2008,-0.2003,-0.203,-0.2081,-0.2131,-0.2144,-0.2149,-0.2187,-0.2173,-0.2191,-0.2201,-0.2278,-0.2298,-0.2244,-0.2362,-0.235,-0.2362,-0.2303,-0.2311,-0.2317,-0.2272,-0.2207,0,0,0,0,0,-0.1953,-0.1969,-0.2029,-0.2046,-0.2069,-0.2101,-0.2121,-0.2137,-0.2181,-0.2193,-0.222,-0.2264,-0.2328,-0.2338,-0.2411,-0.2454,-0.2407,-0.2476,-0.2482,-0.2486,-0.2467,-0.2419,-0.2415,-0.2465,-0.2465,-0.2465,0,0,-0.1941,-0.197,-0.1976,-0.204,-0.2066,-0.2124,-0.2109,-0.2151,-0.2185,-0.2197,-0.2246,-0.2297,-0.2358,-0.2426,-0.2458,-0.2428,-0.2449,-0.2497,-0.2499,-0.2477,-0.2427,-0.2421,-0.2415,-0.2471,-0.247,-0.2469,0,0,-0.1958,-0.1957,-0.1991,-0.204,-0.2097,-0.2126,-0.2139,-0.2199,-0.2207,-0.2273,-0.2302,-0.2353,-0.2435,-0.2474,-0.2502,-0.2591,-0.2506,-0.2621,-0.2572,-0.2526,-0.2518,-0.2511,-0.2416,-0.24,-0.2592,-0.2592,-0.2592,0,-0.1938,-0.1988,-0.2014,-0.2076,-0.2097,-0.2129,-0.2173,-0.2212,-0.2287,-0.2263,-0.229,-0.2368,-0.2454,-0.2475,-0.2546,-0.2593,-0.253,-0.2518,-0.2521,-0.2513,-0.2506,-0.2411,-0.2394,-0.2591,-0.2591,-0.2591,-0.2591,0,-0.1998,-0.2036,-0.2062,-0.2134,-0.2168,-0.2213,-0.2266,-0.2284,-0.2281,-0.2287,-0.2302,-0.2396,-0.2421,-0.2478,-0.2553,-0.2553,-0.2511,-0.2543,-0.2468,-0.2495,-0.2396,-0.2379,-0.2589,-0.2589,-0.259,-0.259,0,0,-0.1938,-0.2076,-0.2076,-0.21,-0.2189,-0.2211,-0.2255,-0.2266,-0.2225,-0.2278,-0.221,-0.2366,-0.2352,-0.2393,-0.2457,-0.2442,-0.2395,-0.2476,-0.2474,-0.2319,-0.2227,-0.2207,-0.2186,-0.2396,-0.2394,-0.2393,-0.2162,0,-0.1963,-0.2071,-0.2123,-0.218,-0.2226,-0.2241,-0.2263,-0.2264,-0.2251,-0.221,-0.2217,-0.2228,-0.2334,-0.2338,-0.2343,-0.2398,-0.2353,-0.245,-0.2279,-0.2273,-0.22,-0.2169,-0.2116,-0.1908,-0.2146,-0.2143,-0.2141,0,-0.1981,-0.2051,-0.213,-0.2163,-0.2171,-0.2208,-0.2148,-0.2178,-0.2131,-0.2105,-0.2058,-0.2068,-0.208,-0.2177,-0.2148,-0.2189,-0.2221,-0.2234,-0.2225,-0.2209,-0.2224,-0.1935,-0.1868,-0.1878,-0.2114,-0.2117,-0.2118,0,-0.1899,-0.2013,-0.2057,-0.2089,-0.2168,-0.215,-0.2159,-0.2125,-0.2084,-0.203,-0.1968,-0.1932,-0.1933,-0.1926,-0.2017,-0.2062,-0.1948,-0.2003,-0.1972,-0.1967,-0.1894,-0.1888,-0.1765,-0.196,-0.196,-0.1961,-0.1961,0,-0.1881,-0.1896,-0.2026,-0.2056,-0.2029,-0.2097,-0.2017,-0.2018,-0.1971,-0.1896,-0.1915,-0.1848,-0.1884,-0.1839,-0.19,-0.1863,-0.184,-0.1931,-0.1906,-0.1879,-0.1874,-0.1863,-0.1908,-0.1952,-0.1954,-0.1956,-0.1957,0,-0.1771,-0.1879,-0.192,-0.2006,-0.2007,-0.1983,-0.1943,-0.1872,-0.1878,-0.1782,-0.1763,-0.1751,-0.1709,-0.17,-0.1693,-0.172,-0.1663,-0.1696,-0.1642,-0.1618,-0.1605,-0.1651,-0.149,-0.1448,-0.1562,-0.156,-0.1558,0,-0.1722,-0.1755,-0.1849,-0.1839,-0.1875,-0.1845,-0.1793,-0.181,-0.1759,-0.1724,-0.1675,-0.1624,-0.158,-0.15,-0.1525,-0.1478,-0.1571,-0.1428,-0.1551,-0.156,-0.1592,-0.1632,-0.1612,-0.1405,-0.1402,-0.14,-0.1398,0,-0.1601,-0.165,-0.1689,-0.1694,-0.167,-0.1624,-0.1598,-0.1567,-0.1584,-0.1536,-0.1499,-0.1464,-0.1417,-0.1374,-0.1354,-0.1346,-0.1396,-0.1383,-0.1401,-0.1459,-0.148,-0.1442,-0.1575,-0.1378,-0.138,-0.1382,-0.1383,-0.1384,-0.1463,-0.1463,-0.152,-0.1497,-0.1465,-0.1431,-0.1361,-0.1364,-0.1314,-0.1262,-0.1341,-0.1274,-0.1299,-0.1267,-0.1246,-0.1214,-0.1267,-0.1225,-0.1266,-0.1295,-0.1306,-0.1385,-0.1185,-0.1186,-0.1187,-0.1188,-0.1188,0,-0.1274,-0.1296,-0.129,-0.1283,-0.1197,-0.1245,-0.1208,-0.1131,-0.1067,-0.1082,-0.105,-0.1122,-0.1113,-0.1144,-0.1163,-0.1127,-0.111,-0.1107,-0.1149,-0.1126,-0.1175,-0.1227,-0.1018,-0.1018,-0.1018,-0.1018,-0.1018,-0.1018,-0.1178,-0.112,-0.1154,-0.1014,-0.0995,-0.0862,-0.0836,-0.0782,-0.0764,-0.0735,-0.077,-0.0832,-0.0998,-0.1195,-0.1185,-0.1123,-0.1116,-0.1069,-0.109,-0.116,-0.1175,-0.119,-0.1248,-0.1047,-0.1048,-0.0996,-0.0996,-0.0996]},{"header":{"parameterUnit":"m.s-1","parameterCategory":2,"la1":30.2991,"la2":30.254,"lo1":-89.0895,"lo2":-89.0444,"dy":0.0017,"dx":0.0017,"nx":28,"ny":28,"refTime":"2023-10-30T03:00:00:Z","depth":"0","parameterNumber":3,"parameterNumberName":"V-component_of_CURRENTS"},"data":[0,0,0,0,0,0,0,0,0,0,0,0,0,0,0,0,0,0,0,0,0,0,0,0,0,0,0,0,0,0,0,0,0,0,0,0,0,0,0,0,0,0,0,0,0,0,0,0,0,0,0,0,0,0,0,0,0,0,-0.0014,-0.0012,0,0.0136,0.0138,0.014,0.0231,0.0231,0.0231,0.0231,0.0465,0.0471,0.0477,0,0,0,0,0,0,0,0,0,0,0,0,0,-0.0094,-0.0094,-0.0014,-0.0012,-0.0011,0.0136,0.0139,0.0141,0.023,0.0231,0.0231,0.0231,0.0463,0.047,0.0477,0,0,0,0,0,0,0,0,0,0,0,0,0,-0.0011,-0.0094,-0.0014,0.005,0.0057,0.0136,0.0139,0.0142,0.023,0.0231,0.0231,0.0231,0.046,0.0469,0.0478,0.053,0,0,0.0506,0.051,0,0,0,0,0,0,0,0,-0.0016,-0.0008,0.0039,0.0045,0.0053,0.0162,0.0196,0.0275,0.023,0.0168,0.0231,0.0231,0.0369,0.0386,0.0417,0.0541,0.0551,0.0507,0.0512,0.0516,0.0519,0,0,0,0,0,0,0,-0.0022,-0.0013,0.0049,0.004,0.0049,0.0115,0.0126,0.0212,0.0269,0.0173,0.0179,0.0191,0.0374,0.0408,0.0423,0.0554,0.0507,0.0515,0.052,0.0524,0.0793,0.0795,0,0,0,0,0,0,-0.0054,-0.0019,0.0044,0.0053,0.0015,0.0115,0.0128,0.013,0.0267,0.0286,0.0191,0.0195,0.0392,0.0412,0.0432,0.0486,0.0516,0.0525,0.053,0.0792,0.0794,0.0796,0,0,0,0,0,0,-0.0056,-0.005,0.0038,0.0019,0.0034,0.0115,0.0117,0.0132,0.0162,0.0279,0.0301,0.0204,0.0393,0.0419,0.052,0.0497,0.0529,0.0537,0.079,0.0792,0.0795,0.0606,0,0,0,0,0,0,-0.0059,-0.0052,-0.0062,0.0016,0.0034,0.0069,0.0117,0.0135,0.0168,0.0175,0.0298,0.032,0.0395,0.0506,0.0529,0.051,0.0544,0.0788,0.0791,0.0794,0.061,0.0602,0.0594,0,0,0,0,0,-0.0063,-0.0086,-0.0064,-0.0056,0.0016,0.0068,0.0083,0.0145,0.0168,0.0174,0.0274,0.0316,0.0543,0.0515,0.0542,0.0524,0.0786,0.079,0.0794,0.0613,0.0603,0.0595,0,0,0,0,0,0,-0.0125,-0.0076,-0.0051,-0.0058,-0.0006,0.0081,0.0092,0.0135,0.0217,0.0227,0.0338,0.0368,0.0453,0.0531,0.0497,0.0621,0.0671,0.0681,0.0525,0.0517,0.0509,0.0462,0.0552,0,0,0,0,0,-0.0146,-0.0148,-0.0085,-0.0087,-0.0069,0.0011,0.0039,0.0079,0.016,0.0195,0.0281,0.039,0.0492,0.0534,0.064,0.0697,0.0745,0.0712,0.0703,0.0696,0.0683,0.074,0.0733,0.0808,0.0808,0.0808,0,0,-0.0169,-0.0142,-0.0143,-0.01,-0.0053,-0.0038,0.0029,0.0059,0.0076,0.021,0.0263,0.0371,0.051,0.0582,0.0624,0.0636,0.0699,0.07,0.0691,0.0683,0.0742,0.0734,0.0727,0.0811,0.081,0.081,0,0,-0.022,-0.0195,-0.0216,-0.0183,-0.0132,-0.0079,-0.0079,-0.0,0.0037,0.0105,0.0214,0.0301,0.0445,0.0528,0.0594,0.0612,0.0667,0.0653,0.0552,0.0606,0.0598,0.0592,0.0613,0.061,0.0631,0.0631,0.0631,0,-0.025,-0.0266,-0.0211,-0.022,-0.0197,-0.0109,-0.0116,-0.0067,0.0035,0.007,0.01,0.0314,0.0415,0.0509,0.0513,0.0584,0.0619,0.0558,0.0587,0.0582,0.0579,0.0602,0.0601,0.0622,0.0623,0.0624,0.0625,0,-0.0314,-0.0323,-0.033,-0.0311,-0.028,-0.0271,-0.0199,-0.0164,-0.0107,-0.0048,0.0052,0.0188,0.0308,0.0353,0.0434,0.0475,0.0507,0.0571,0.0583,0.0558,0.0586,0.0588,0.061,0.0613,0.0616,0.0618,0,0,-0.0376,-0.0379,-0.0378,-0.0376,-0.0328,-0.0298,-0.0281,-0.0222,-0.0191,-0.0117,-0.0073,0.007,0.0135,0.0216,0.0324,0.0361,0.0354,0.0434,0.0441,0.0404,0.0444,0.0476,0.0482,0.0413,0.0413,0.0413,0.0459,0,-0.0435,-0.0483,-0.0458,-0.0468,-0.0475,-0.0398,-0.0375,-0.0311,-0.0241,-0.0177,-0.0071,0.0031,0.0086,0.0152,0.0182,0.0347,0.0358,0.0335,0.0519,0.0524,0.0514,0.0486,0.0523,0.0568,0.0462,0.0462,0.0463,0,-0.0501,-0.0516,-0.0567,-0.053,-0.0521,-0.0514,-0.0439,-0.0403,-0.0308,-0.0251,-0.0183,-0.0077,0.0002,0.0063,0.0206,0.0187,0.0283,0.038,0.0386,0.0483,0.0561,0.0592,0.0578,0.07,0.0467,0.0467,0.0466,0,-0.0564,-0.0576,-0.0618,-0.0613,-0.0573,-0.0566,-0.052,-0.0435,-0.0375,-0.0293,-0.0238,-0.015,-0.006,0.0034,0.0204,0.021,0.0364,0.041,0.0513,0.0516,0.062,0.0632,0.0708,0.0488,0.0488,0.0488,0.0488,0,-0.0638,-0.0654,-0.0652,-0.0672,-0.0669,-0.0616,-0.0575,-0.0527,-0.0429,-0.0347,-0.028,-0.0197,-0.0057,0.0056,0.017,0.0335,0.0329,0.0481,0.0531,0.0557,0.0562,0.0736,0.0785,0.049,0.0489,0.0489,0.0489,0,-0.0708,-0.0722,-0.0748,-0.0727,-0.0712,-0.0705,-0.0599,-0.0545,-0.0472,-0.0369,-0.0339,-0.0214,-0.0078,0.0051,0.0244,0.0325,0.0549,0.0536,0.0533,0.0582,0.0775,0.0812,0.0939,0.101,0.0633,0.0634,0.0635,0,-0.075,-0.0789,-0.0791,-0.0785,-0.0781,-0.0739,-0.0684,-0.0585,-0.0508,-0.0361,-0.0307,-0.017,-0.0046,0.0187,0.0359,0.0524,0.0624,0.0654,0.0677,0.0772,0.0852,0.0875,0.0927,0.0732,0.0734,0.0735,0.0736,0,-0.0807,-0.0823,-0.084,-0.0838,-0.0807,-0.0742,-0.0661,-0.0599,-0.0456,-0.0334,-0.0186,-0.009,0.0094,0.0304,0.0496,0.0599,0.0739,0.0687,0.0809,0.0941,0.0952,0.105,0.0689,0.0748,0.0747,0.0746,0.0745,0.0745,-0.0823,-0.0853,-0.087,-0.0858,-0.0816,-0.0727,-0.0626,-0.0494,-0.0327,-0.0091,-0.0084,0.0112,0.0269,0.055,0.0673,0.0917,0.0876,0.0991,0.1025,0.1037,0.1115,0.0752,0.0861,0.086,0.086,0.0859,0.0859,0,-0.0813,-0.0845,-0.0858,-0.0832,-0.0764,-0.0735,-0.0573,-0.0414,-0.0162,0.0007,0.0184,0.0378,0.0638,0.0809,0.1108,0.1251,0.1288,0.1305,0.1359,0.1396,0.1106,0.1122,0.1266,0.1266,0.1266,0.1266,0.1266,0.1265,-0.0803,-0.0826,-0.0845,-0.0764,-0.0723,-0.055,-0.0424,-0.0188,-0.0009,0.0311,0.0477,0.0536,0.0708,0.121,0.1531,0.1557,0.1693,0.1663,0.173,0.1546,0.1519,0.1494,0.1522,0.1748,0.1749,0.2024,0.2027,0.2029]}],[{"header":{"parameterUnit":"m.s-1","parameterCategory":2,"la1":30.2991,"la2":30.254,"lo1":-89.0895,"lo2":-89.0444,"dy":0.0017,"dx":0.0017,"nx":28,"ny":28,"refTime":"2023-10-30T03:00:00:Z","depth":"2","parameterNumber":2,"parameterNumberName":"U-component_of_CURRENTS"},"data":[0,0,0,0,0,0,0,0,0,0,0,0,0,0,0,0,0,0,0,0,0,0,0,0,0,0,0,0,0,0,0,0,0,0,0,0,0,0,0,0,0,0,0,0,0,0,0,0,0,0,0,0,0,0,0,0,0,0,-0.1834,-0.1835,0,-0.1945,-0.1947,-0.1948,-0.1987,-0.1986,-0.1986,-0.1985,-0.193,-0.1929,-0.1928,0,0,0,0,0,0,0,0,0,0,0,0,0,-0.1707,-0.1709,-0.1834,-0.1835,-0.1837,-0.1945,-0.1947,-0.1948,-0.1987,-0.1986,-0.1985,-0.1985,-0.193,-0.1929,-0.1928,0,0,0,0,0,0,0,0,0,0,0,0,0,-0.1786,-0.1709,-0.1834,-0.1868,-0.1872,-0.1945,-0.1947,-0.1949,-0.1987,-0.1986,-0.1985,-0.1985,-0.1931,-0.1929,-0.1928,-0.1936,0,0,-0.1924,-0.1923,0,0,0,0,0,0,0,0,-0.1781,-0.179,-0.1862,-0.1866,-0.187,-0.195,-0.1882,-0.1936,-0.1987,-0.1945,-0.1985,-0.1984,-0.1921,-0.192,-0.1948,-0.1934,-0.1931,-0.1923,-0.1923,-0.1922,-0.1922,0,0,0,0,0,0,0,-0.1775,-0.1786,-0.188,-0.1863,-0.1868,-0.1895,-0.1905,-0.1893,-0.1934,-0.1949,-0.1951,-0.1961,-0.1922,-0.1949,-0.1946,-0.1931,-0.1924,-0.1922,-0.1921,-0.1921,-0.1913,-0.1913,0,0,0,0,0,0,-0.1757,-0.1781,-0.1876,-0.1883,-0.1821,-0.1897,-0.1909,-0.1926,-0.1938,-0.194,-0.1962,-0.1963,-0.1952,-0.1948,-0.1944,-0.1964,-0.1922,-0.1921,-0.192,-0.1912,-0.1913,-0.1913,0,0,0,0,0,0,-0.1754,-0.1765,-0.1872,-0.1833,-0.1848,-0.19,-0.192,-0.1929,-0.1955,-0.195,-0.1949,-0.1977,-0.1951,-0.1946,-0.1941,-0.1961,-0.192,-0.1919,-0.1911,-0.1912,-0.1913,-0.1996,0,0,0,0,0,0,-0.175,-0.1764,-0.1774,-0.1832,-0.1849,-0.1921,-0.1921,-0.1932,-0.1961,-0.1964,-0.1962,-0.1957,-0.195,-0.1944,-0.194,-0.1958,-0.1918,-0.191,-0.1912,-0.1913,-0.1992,-0.2,-0.2006,0,0,0,0,0,-0.1746,-0.175,-0.1774,-0.1785,-0.186,-0.1922,-0.1935,-0.1969,-0.1963,-0.1986,-0.1981,-0.1957,-0.1948,-0.1944,-0.1939,-0.1957,-0.191,-0.1911,-0.1913,-0.1989,-0.1998,-0.2006,0,0,0,0,0,0,-0.1692,-0.1757,-0.1783,-0.1806,-0.1867,-0.1928,-0.1945,-0.1969,-0.199,-0.1977,-0.1969,-0.1964,-0.1984,-0.1947,-0.1942,-0.1956,-0.1923,-0.1924,-0.1983,-0.1991,-0.1998,-0.1948,-0.1917,0,0,0,0,0,-0.1689,-0.1714,-0.1785,-0.1806,-0.1833,-0.1892,-0.1919,-0.1946,-0.1971,-0.1981,-0.1995,-0.1985,-0.1989,-0.1968,-0.1983,-0.197,-0.191,-0.1975,-0.1982,-0.1988,-0.1944,-0.189,-0.1887,-0.1918,-0.1918,-0.1918,0,0,-0.1674,-0.1712,-0.1727,-0.1798,-0.1842,-0.1891,-0.1906,-0.1947,-0.1974,-0.1966,-0.2004,-0.2027,-0.2,-0.2019,-0.2017,-0.198,-0.1954,-0.199,-0.1995,-0.1946,-0.1891,-0.1887,-0.1884,-0.1919,-0.1919,-0.1919,0,0,-0.1664,-0.1694,-0.1722,-0.1774,-0.1842,-0.188,-0.1891,-0.1969,-0.1988,-0.2036,-0.2038,-0.2061,-0.2075,-0.2064,-0.2051,-0.2086,-0.2018,-0.2093,-0.2055,-0.2006,-0.2002,-0.1998,-0.1944,-0.1934,-0.2065,-0.2065,-0.2065,0,-0.1646,-0.1689,-0.174,-0.1787,-0.1801,-0.1873,-0.1894,-0.1944,-0.2015,-0.1997,-0.2051,-0.2068,-0.2094,-0.2045,-0.209,-0.2102,-0.2048,-0.2035,-0.2013,-0.2008,-0.2002,-0.1947,-0.1935,-0.2069,-0.2068,-0.2068,-0.2068,0,-0.1668,-0.1707,-0.1723,-0.18,-0.1825,-0.1856,-0.1916,-0.1965,-0.2003,-0.2024,-0.2031,-0.2085,-0.2072,-0.2111,-0.2124,-0.2084,-0.2054,-0.2059,-0.1992,-0.2003,-0.1946,-0.1932,-0.2075,-0.2073,-0.2072,-0.2071,0,0,-0.161,-0.1716,-0.1724,-0.1752,-0.1818,-0.1845,-0.1877,-0.1897,-0.1895,-0.1977,-0.1946,-0.202,-0.2034,-0.2018,-0.2041,-0.2009,-0.1997,-0.2014,-0.201,-0.1958,-0.1864,-0.1848,-0.1831,-0.199,-0.1987,-0.1985,-0.185,0,-0.161,-0.1687,-0.1712,-0.1758,-0.1794,-0.1828,-0.1851,-0.1869,-0.1896,-0.191,-0.1913,-0.1924,-0.1994,-0.2008,-0.1992,-0.2,-0.1956,-0.203,-0.1859,-0.1853,-0.1836,-0.1813,-0.1719,-0.1589,-0.1836,-0.1833,-0.1832,0,-0.1627,-0.1666,-0.1716,-0.1738,-0.1746,-0.1781,-0.1774,-0.1803,-0.1806,-0.1812,-0.179,-0.1806,-0.1787,-0.1871,-0.1813,-0.1849,-0.1855,-0.1855,-0.185,-0.1778,-0.181,-0.1612,-0.1554,-0.1807,-0.1809,-0.1811,-0.1813,0,-0.1597,-0.1652,-0.1681,-0.1702,-0.176,-0.1758,-0.1771,-0.1774,-0.1752,-0.1744,-0.1723,-0.1684,-0.1697,-0.1668,-0.1719,-0.175,-0.1647,-0.1689,-0.1652,-0.165,-0.1502,-0.1492,-0.1616,-0.1616,-0.1616,-0.1617,-0.1617,0,-0.1603,-0.162,-0.1688,-0.1726,-0.1681,-0.1745,-0.1705,-0.1709,-0.171,-0.1654,-0.1676,-0.1633,-0.1652,-0.1615,-0.1641,-0.1596,-0.1578,-0.1611,-0.1601,-0.1535,-0.153,-0.1661,-0.1668,-0.1612,-0.1613,-0.1614,-0.1615,0,-0.1589,-0.1663,-0.1658,-0.1695,-0.1691,-0.1661,-0.1634,-0.1627,-0.1649,-0.1586,-0.1575,-0.157,-0.1532,-0.1526,-0.1493,-0.1502,-0.1462,-0.1451,-0.1376,-0.1361,-0.1511,-0.1524,-0.1359,-0.1357,-0.1355,-0.1354,-0.1353,0,-0.1593,-0.1627,-0.1599,-0.1563,-0.1577,-0.1557,-0.1545,-0.157,-0.1556,-0.1541,-0.1506,-0.1472,-0.1429,-0.1362,-0.1353,-0.1307,-0.1392,-0.1211,-0.1268,-0.147,-0.1478,-0.1494,-0.1509,-0.1109,-0.1106,-0.1104,-0.1102,0,-0.1546,-0.1545,-0.152,-0.1447,-0.1419,-0.1377,-0.1383,-0.1364,-0.1415,-0.1389,-0.1364,-0.1336,-0.1288,-0.1214,-0.1183,-0.1156,-0.1211,-0.116,-0.1336,-0.1216,-0.1231,-0.1241,-0.1264,-0.1079,-0.1082,-0.1083,-0.1084,-0.1085,-0.144,-0.1374,-0.1355,-0.1248,-0.1225,-0.1219,-0.1162,-0.1226,-0.1203,-0.1197,-0.1222,-0.1162,-0.1158,-0.1059,-0.1013,-0.0982,-0.1071,-0.1046,-0.1055,-0.1066,-0.1087,-0.1101,-0.0928,-0.093,-0.0931,-0.0932,-0.0933,0,-0.1298,-0.1252,-0.1163,-0.1056,-0.1002,-0.105,-0.1052,-0.1027,-0.1006,-0.106,-0.1045,-0.0922,-0.0887,-0.0885,-0.081,-0.0808,-0.0802,-0.078,-0.0783,-0.0805,-0.0825,-0.0836,-0.0609,-0.0608,-0.0607,-0.0606,0,0,-0.1212,-0.1094,-0.1037,-0.0861,-0.0827,-0.0753,-0.0741,-0.0756,-0.0773,-0.0781,-0.0778,-0.0847,-0.0849,-0.0729,-0.0709,-0.0649,-0.0715,-0.0612,-0.0869,-0.0893,-0.0912,-0.0974,-0.1015,0,0,0,0,0]},{"header":{"parameterUnit":"m.s-1","parameterCategory":2,"la1":30.2991,"la2":30.254,"lo1":-89.0895,"lo2":-89.0444,"dy":0.0017,"dx":0.0017,"nx":28,"ny":28,"refTime":"2023-10-30T03:00:00:Z","depth":"2","parameterNumber":3,"parameterNumberName":"V-component_of_CURRENTS"},"data":[0,0,0,0,0,0,0,0,0,0,0,0,0,0,0,0,0,0,0,0,0,0,0,0,0,0,0,0,0,0,0,0,0,0,0,0,0,0,0,0,0,0,0,0,0,0,0,0,0,0,0,0,0,0,0,0,0,0,-0.0171,-0.0169,0,0.0025,0.0028,0.003,0.0152,0.0152,0.0153,0.0153,0.0361,0.0366,0.0372,0,0,0,0,0,0,0,0,0,0,0,0,0,-0.0307,-0.0305,-0.0171,-0.0169,-0.0167,0.0025,0.0028,0.0031,0.0152,0.0152,0.0153,0.0153,0.036,0.0366,0.0372,0,0,0,0,0,0,0,0,0,0,0,0,0,-0.0189,-0.0305,-0.0172,-0.0087,-0.0077,0.0024,0.0028,0.0032,0.0152,0.0152,0.0153,0.0153,0.0357,0.0365,0.0373,0.0414,0,0,0.0397,0.0401,0,0,0,0,0,0,0,0,-0.0196,-0.0184,-0.0101,-0.0092,-0.0082,0.0061,0.0056,0.0159,0.0152,0.0069,0.0153,0.0153,0.0259,0.0275,0.0317,0.0424,0.0432,0.0398,0.0403,0.0406,0.0408,0,0,0,0,0,0,0,-0.0205,-0.0191,-0.0089,-0.0099,-0.0087,-0.0012,0.0004,0.0077,0.0163,0.0077,0.0085,0.01,0.0265,0.0309,0.0322,0.0436,0.0398,0.0405,0.041,0.0413,0.0605,0.0605,0,0,0,0,0,0,-0.0245,-0.0199,-0.0095,-0.0084,-0.0144,-0.0011,0.0007,0.0018,0.0162,0.0183,0.0099,0.0105,0.0295,0.0313,0.033,0.0384,0.0406,0.0414,0.0418,0.0605,0.0605,0.0605,0,0,0,0,0,0,-0.0248,-0.0237,-0.0103,-0.014,-0.0118,-0.0011,0.0001,0.0022,0.0068,0.0178,0.0201,0.0124,0.0296,0.0319,0.0402,0.0393,0.0417,0.0424,0.0604,0.0605,0.0605,0.0493,0,0,0,0,0,0,-0.0253,-0.024,-0.024,-0.0143,-0.0118,-0.0059,0.0001,0.0025,0.0074,0.0084,0.0207,0.0227,0.0298,0.0389,0.041,0.0404,0.0431,0.0604,0.0604,0.0605,0.0497,0.049,0.0484,0,0,0,0,0,-0.0259,-0.0266,-0.0242,-0.0229,-0.0124,-0.006,-0.004,0.0042,0.0074,0.0087,0.018,0.0223,0.0407,0.0396,0.042,0.0417,0.0603,0.0604,0.0605,0.0499,0.0491,0.0484,0,0,0,0,0,0,-0.0317,-0.0251,-0.0223,-0.0208,-0.0148,-0.0041,-0.0018,0.0034,0.012,0.0131,0.0236,0.0263,0.034,0.0392,0.0377,0.0475,0.0509,0.0514,0.0421,0.0414,0.0408,0.0365,0.0437,0,0,0,0,0,-0.0336,-0.0329,-0.025,-0.0239,-0.0213,-0.0118,-0.0079,-0.0029,0.0055,0.0094,0.0181,0.0273,0.0362,0.0396,0.0486,0.0531,0.0566,0.0543,0.0537,0.0531,0.0514,0.0567,0.0563,0.0608,0.0608,0.0608,0,0,-0.0356,-0.032,-0.0314,-0.0252,-0.0194,-0.0154,-0.0092,-0.0047,-0.0013,0.0102,0.0175,0.0265,0.0376,0.0442,0.0476,0.0479,0.0535,0.0532,0.0526,0.0512,0.0567,0.0563,0.0559,0.0608,0.0608,0.0608,0,0,-0.0389,-0.0362,-0.0359,-0.0315,-0.0248,-0.019,-0.0185,-0.0087,-0.0046,0.0025,0.0127,0.0201,0.0326,0.04,0.0455,0.0464,0.0516,0.0493,0.0409,0.0461,0.0457,0.0454,0.0473,0.0472,0.047,0.047,0.047,0,-0.0412,-0.0389,-0.0348,-0.0325,-0.0285,-0.0214,-0.0185,-0.0138,-0.0027,0.0003,0.0028,0.0218,0.0304,0.0391,0.0392,0.0447,0.0475,0.0424,0.0449,0.0447,0.0446,0.0466,0.0467,0.0464,0.0465,0.0466,0.0466,0,-0.0426,-0.0404,-0.0399,-0.0347,-0.031,-0.0276,-0.021,-0.018,-0.0128,-0.007,0.0015,0.0128,0.023,0.0269,0.0333,0.0373,0.0395,0.0447,0.0456,0.0434,0.0458,0.046,0.0457,0.0459,0.046,0.0462,0,0,-0.0473,-0.0418,-0.0413,-0.039,-0.0312,-0.0286,-0.0254,-0.0193,-0.0174,-0.0101,-0.006,0.0064,0.0107,0.0171,0.0257,0.0287,0.0297,0.0341,0.0346,0.0337,0.0385,0.0401,0.0407,0.0353,0.0353,0.0353,0.0397,0,-0.048,-0.0457,-0.0418,-0.0386,-0.0359,-0.03,-0.0277,-0.0229,-0.0178,-0.0132,-0.0054,0.003,0.0074,0.0124,0.0154,0.0291,0.0303,0.0279,0.0428,0.0431,0.0431,0.041,0.0388,0.0426,0.04,0.04,0.0401,0,-0.0495,-0.0469,-0.045,-0.0402,-0.0386,-0.0371,-0.0324,-0.0293,-0.0232,-0.019,-0.0134,-0.0053,0.0014,0.0057,0.0186,0.0169,0.0249,0.0328,0.0333,0.0388,0.0453,0.0452,0.0433,0.0406,0.0406,0.0405,0.0405,0,-0.0549,-0.0492,-0.0482,-0.046,-0.0402,-0.04,-0.0373,-0.0321,-0.0285,-0.0229,-0.0187,-0.011,-0.004,0.0046,0.0186,0.0192,0.0325,0.0366,0.0444,0.0446,0.0475,0.0479,0.0436,0.0436,0.0435,0.0435,0.0435,0,-0.0572,-0.0563,-0.0516,-0.0513,-0.0497,-0.0456,-0.0444,-0.0406,-0.0346,-0.0296,-0.023,-0.0165,-0.0036,0.0063,0.0161,0.03,0.0303,0.0415,0.0459,0.0435,0.0435,0.0466,0.0469,0.0437,0.0437,0.0436,0.0436,0,-0.0644,-0.061,-0.0591,-0.0542,-0.0529,-0.0529,-0.0472,-0.0461,-0.0404,-0.0335,-0.0311,-0.0192,-0.007,0.0049,0.0218,0.0291,0.0416,0.0467,0.0408,0.0444,0.0499,0.0496,0.054,0.0541,0.0541,0.0542,0.0543,0,-0.0679,-0.0686,-0.0629,-0.0617,-0.06,-0.0583,-0.0569,-0.0498,-0.046,-0.0339,-0.0299,-0.0175,-0.0069,0.0142,0.0291,0.0437,0.045,0.0501,0.0511,0.0471,0.051,0.0506,0.0502,0.0498,0.0499,0.0499,0.0499,0,-0.0743,-0.0733,-0.0709,-0.0674,-0.0657,-0.0623,-0.059,-0.0556,-0.0464,-0.0395,-0.0275,-0.0188,0.0017,0.0181,0.0359,0.0443,0.0468,0.0509,0.0504,0.0476,0.0437,0.0473,0.047,0.05,0.05,0.05,0.05,0.05,-0.0786,-0.0782,-0.0753,-0.0708,-0.069,-0.0659,-0.064,-0.0583,-0.051,-0.0399,-0.0285,-0.0147,0.0027,0.0276,0.041,0.0517,0.0523,0.0548,0.0546,0.0544,0.0532,0.0497,0.0567,0.0567,0.0568,0.0568,0.0568,0,-0.0829,-0.0817,-0.0787,-0.0735,-0.0722,-0.0696,-0.0644,-0.0617,-0.0542,-0.0421,-0.0306,-0.0094,0.0098,0.0262,0.0449,0.057,0.0556,0.057,0.0534,0.0532,0.0531,0.0517,0.0549,0.0549,0.0549,0.055,0,0,-0.0848,-0.0836,-0.0795,-0.0754,-0.0742,-0.0714,-0.0686,-0.0632,-0.0543,-0.0435,-0.0317,-0.0152,0.0092,0.0222,0.0372,0.0464,0.0458,0.046,0.0462,0.0399,0.0396,0.0506,0.0481,0,0,0,0,0]}],[{"header":{"parameterUnit":"m.s-1","parameterCategory":2,"la1":30.2991,"la2":30.254,"lo1":-89.0895,"lo2":-89.0444,"dy":0.0017,"dx":0.0017,"nx":28,"ny":28,"refTime":"2023-10-30T03:00:00:Z","depth":"4","parameterNumber":2,"parameterNumberName":"U-component_of_CURRENTS"},"data":[0,0,0,0,0,0,0,0,0,0,0,0,0,0,0,0,0,0,0,0,0,0,0,0,0,0,0,0,0,0,0,0,0,0,0,0,0,0,0,0,0,0,0,0,0,0,0,0,0,0,0,0,0,0,0,0,0,0,-0.069,-0.0691,0,-0.0708,-0.0708,-0.0708,-0.0709,-0.0709,-0.0709,-0.0709,-0.0631,-0.0629,-0.0627,0,0,0,0,0,0,0,0,0,0,0,0,0,-0.0655,-0.0655,-0.069,-0.0691,-0.0691,-0.0708,-0.0708,-0.0708,-0.0709,-0.0709,-0.0709,-0.0709,-0.0632,-0.0629,-0.0627,0,0,0,0,0,0,0,0,0,0,0,0,0,-0.0668,-0.0655,-0.069,-0.0696,-0.0697,-0.0708,-0.0708,-0.0708,-0.0709,-0.0709,-0.0709,-0.071,-0.0633,-0.0629,-0.0626,-0.0603,0,0,-0.0616,-0.0615,0,0,0,0,0,0,0,0,-0.0667,-0.0669,-0.0695,-0.0696,-0.0697,-0.0709,-0.0667,-0.0669,-0.0709,-0.0701,-0.0709,-0.071,-0.065,-0.0645,-0.0645,-0.06,-0.0596,-0.0616,-0.0614,-0.0613,-0.0612,0,0,0,0,0,0,0,-0.0666,-0.0668,-0.0694,-0.0696,-0.0697,-0.0697,-0.0699,-0.0667,-0.0671,-0.0702,-0.0703,-0.071,-0.065,-0.0649,-0.0643,-0.0595,-0.0616,-0.0613,-0.0611,-0.061,-0.059,-0.0591,0,0,0,0,0,0,-0.067,-0.0667,-0.0694,-0.0695,-0.0686,-0.0698,-0.07,-0.0703,-0.0673,-0.067,-0.071,-0.071,-0.0654,-0.0647,-0.064,-0.0673,-0.0613,-0.0609,-0.0608,-0.0589,-0.059,-0.0592,0,0,0,0,0,0,-0.067,-0.0672,-0.0693,-0.0684,-0.0687,-0.0699,-0.0702,-0.0703,-0.0713,-0.068,-0.0675,-0.072,-0.0654,-0.0645,-0.0628,-0.0667,-0.0608,-0.0605,-0.0587,-0.0589,-0.0591,-0.0698,0,0,0,0,0,0,-0.0668,-0.0672,-0.0679,-0.0684,-0.0688,-0.0708,-0.0702,-0.0703,-0.0717,-0.0718,-0.0687,-0.068,-0.0653,-0.0634,-0.0625,-0.0662,-0.0603,-0.0585,-0.0588,-0.059,-0.0692,-0.0703,-0.0713,0,0,0,0,0,-0.0667,-0.0674,-0.0679,-0.0683,-0.0696,-0.0709,-0.0711,-0.0717,-0.0718,-0.0725,-0.0709,-0.0681,-0.0645,-0.0631,-0.0621,-0.0658,-0.0584,-0.0587,-0.059,-0.0688,-0.0701,-0.0712,0,0,0,0,0,0,-0.0662,-0.0675,-0.0681,-0.0692,-0.0705,-0.0711,-0.0718,-0.0724,-0.0719,-0.0717,-0.0686,-0.0677,-0.0682,-0.065,-0.0636,-0.0661,-0.0615,-0.0616,-0.0693,-0.0705,-0.0715,-0.0745,-0.06,0,0,0,0,0,-0.0665,-0.0674,-0.0688,-0.0699,-0.0704,-0.0713,-0.0721,-0.0728,-0.0724,-0.0723,-0.0707,-0.0691,-0.0686,-0.0679,-0.066,-0.0662,-0.0645,-0.0683,-0.0693,-0.0702,-0.072,-0.0745,-0.0759,-0.0602,-0.0602,-0.0602,0,0,-0.0669,-0.0676,-0.0684,-0.0699,-0.0706,-0.0722,-0.0717,-0.0732,-0.0754,-0.0712,-0.0729,-0.0719,-0.0693,-0.0708,-0.0708,-0.0686,-0.0732,-0.0706,-0.0714,-0.0728,-0.075,-0.0765,-0.0779,-0.0605,-0.0604,-0.0604,0,0,-0.0673,-0.0684,-0.0691,-0.0705,-0.0722,-0.0733,-0.0742,-0.0756,-0.0769,-0.0781,-0.0771,-0.0799,-0.076,-0.0785,-0.0782,-0.0836,-0.0783,-0.0815,-0.0892,-0.0916,-0.0929,-0.0941,-0.0917,-0.0925,-0.0823,-0.0823,-0.0823,0,-0.0678,-0.0689,-0.0696,-0.0708,-0.0728,-0.0741,-0.0761,-0.0777,-0.079,-0.081,-0.0795,-0.0824,-0.0812,-0.0864,-0.0893,-0.0865,-0.0838,-0.0849,-0.0931,-0.0942,-0.0952,-0.0925,-0.0933,-0.0828,-0.0828,-0.0827,-0.0827,0,-0.0682,-0.0702,-0.0707,-0.0731,-0.0753,-0.0772,-0.0801,-0.0825,-0.0844,-0.0866,-0.0919,-0.0927,-0.095,-0.0961,-0.0942,-0.1018,-0.096,-0.094,-0.0904,-0.0975,-0.094,-0.0947,-0.0836,-0.0834,-0.0833,-0.0831,0,0,-0.0665,-0.0704,-0.0707,-0.0738,-0.077,-0.0796,-0.0833,-0.0882,-0.0929,-0.0955,-0.1015,-0.106,-0.1079,-0.1082,-0.1083,-0.1121,-0.1177,-0.1064,-0.1063,-0.1047,-0.1183,-0.1095,-0.1093,-0.1159,-0.1161,-0.1163,-0.1122,0,-0.0668,-0.07,-0.0721,-0.0777,-0.0802,-0.084,-0.0886,-0.0936,-0.0973,-0.103,-0.1076,-0.1125,-0.1118,-0.1146,-0.1188,-0.1172,-0.1202,-0.1187,-0.1111,-0.1109,-0.1029,-0.1102,-0.1171,-0.1126,-0.1128,-0.1129,-0.113,0,-0.0658,-0.0691,-0.0733,-0.0823,-0.084,-0.0881,-0.0972,-0.1016,-0.109,-0.1121,-0.1183,-0.1198,-0.127,-0.1252,-0.1287,-0.1264,-0.1242,-0.1232,-0.123,-0.112,-0.1035,-0.1045,-0.1141,-0.1141,-0.114,-0.1139,-0.1138,0,-0.0638,-0.0706,-0.0747,-0.0771,-0.0862,-0.0907,-0.0965,-0.1045,-0.1098,-0.1182,-0.1214,-0.1286,-0.1313,-0.1325,-0.1297,-0.1289,-0.1305,-0.1285,-0.1187,-0.1177,-0.1219,-0.1207,-0.1326,-0.1326,-0.1326,-0.1326,-0.1327,0,-0.0625,-0.0667,-0.075,-0.0774,-0.0867,-0.0923,-0.1025,-0.1083,-0.1166,-0.1215,-0.1265,-0.1298,-0.1333,-0.133,-0.1312,-0.1256,-0.1311,-0.1218,-0.118,-0.1259,-0.1252,-0.1222,-0.121,-0.1325,-0.1325,-0.1326,-0.1326,0,-0.0586,-0.0631,-0.07,-0.0807,-0.0854,-0.092,-0.1058,-0.1116,-0.1191,-0.1247,-0.1269,-0.131,-0.1294,-0.1299,-0.1299,-0.1255,-0.1228,-0.1194,-0.1253,-0.1215,-0.1076,-0.1071,-0.1091,-0.1088,-0.1085,-0.1083,-0.1081,0,-0.0569,-0.0588,-0.0716,-0.0768,-0.0821,-0.0935,-0.1004,-0.1119,-0.1159,-0.1232,-0.1231,-0.125,-0.1258,-0.1177,-0.12,-0.1157,-0.1148,-0.1119,-0.1145,-0.1101,-0.1062,-0.106,-0.1058,-0.1077,-0.1077,-0.1076,-0.1075,0,-0.0535,-0.0574,-0.0629,-0.0732,-0.0817,-0.0921,-0.1013,-0.1038,-0.1125,-0.1205,-0.117,-0.1157,-0.1129,-0.1114,-0.1082,-0.1058,-0.1139,-0.1092,-0.1098,-0.1122,-0.1084,-0.1048,-0.1049,-0.1066,-0.1068,-0.1068,-0.1069,0,-0.0512,-0.0536,-0.0597,-0.0689,-0.0786,-0.0844,-0.0927,-0.0962,-0.102,-0.1079,-0.1062,-0.1069,-0.1107,-0.106,-0.1033,-0.1002,-0.0996,-0.0973,-0.0985,-0.0995,-0.0986,-0.0925,-0.0843,0,0,0,0,0,-0.0482,-0.0487,-0.0554,-0.0638,-0.0723,-0.0779,-0.0891,-0.0956,-0.1031,-0.0979,-0.102,-0.0987,-0.0951,-0.0966,-0.0911,-0.0991,-0.0998,-0.0926,-0.0978,-0.1017,-0.1027,-0.1027,0,0,0,0,0,0,-0.0457,-0.0494,-0.052,-0.0562,-0.0597,-0.0684,-0.0745,-0.0807,-0.0796,-0.0866,-0.0854,-0.0917,-0.0898,-0.0945,-0.0879,-0.0884,-0.0898,-0.0948,-0.0946,-0.1011,-0.102,-0.1029,-0.1032,0,0,0,0,0]},{"header":{"parameterUnit":"m.s-1","parameterCategory":2,"la1":30.2991,"la2":30.254,"lo1":-89.0895,"lo2":-89.0444,"dy":0.0017,"dx":0.0017,"nx":28,"ny":28,"refTime":"2023-10-30T03:00:00:Z","depth":"4","parameterNumber":3,"parameterNumberName":"V-component_of_CURRENTS"},"data":[0,0,0,0,0,0,0,0,0,0,0,0,0,0,0,0,0,0,0,0,0,0,0,0,0,0,0,0,0,0,0,0,0,0,0,0,0,0,0,0,0,0,0,0,0,0,0,0,0,0,0,0,0,0,0,0,0,0,-0.0011,-0.0011,0,0.0001,0.0002,0.0002,0.0034,0.0035,0.0035,0.0036,0.0078,0.0078,0.0079,0,0,0,0,0,0,0,0,0,0,0,0,0,-0.0014,-0.0014,-0.0011,-0.0011,-0.0011,0.0001,0.0002,0.0002,0.0034,0.0035,0.0035,0.0036,0.0078,0.0078,0.0079,0,0,0,0,0,0,0,0,0,0,0,0,0,-0.0007,-0.0014,-0.0011,0.0005,0.0006,0.0001,0.0002,0.0002,0.0034,0.0035,0.0035,0.0036,0.0077,0.0078,0.0079,0.0069,0,0,0.0082,0.0083,0,0,0,0,0,0,0,0,-0.0007,-0.0006,0.0003,0.0004,0.0005,0.0016,0.0016,0.0026,0.0034,0.0025,0.0036,0.0036,0.0058,0.0061,0.0063,0.0071,0.0073,0.0082,0.0083,0.0083,0.0083,0,0,0,0,0,0,0,-0.0008,-0.0007,-0.0004,0.0003,0.0004,0.0009,0.0011,0.0018,0.0039,0.0026,0.0028,0.0026,0.0059,0.0062,0.0064,0.0074,0.0082,0.0083,0.0084,0.0084,0.0078,0.0077,0,0,0,0,0,0,-0.0013,-0.0007,-0.0005,-0.0004,-0.0001,0.0009,0.0011,0.0013,0.0038,0.0042,0.0026,0.0028,0.006,0.0063,0.0066,0.0069,0.0083,0.0084,0.0085,0.0078,0.0077,0.0077,0,0,0,0,0,0,-0.0013,-0.0013,-0.0005,-0.0007,-0.0006,0.0008,0.0009,0.0013,0.0016,0.0037,0.0042,0.0026,0.0061,0.0065,0.006,0.007,0.0084,0.0085,0.0079,0.0078,0.0077,0.0066,0,0,0,0,0,0,-0.0013,-0.0013,-0.0013,-0.0007,-0.0006,-0.0019,0.0009,0.0012,0.0013,0.0016,0.0039,0.0044,0.0062,0.0058,0.0061,0.0072,0.0086,0.008,0.0079,0.0077,0.0067,0.0065,0.0062,0,0,0,0,0,-0.0013,-0.0019,-0.0013,-0.0013,-0.0006,-0.0021,-0.002,-0.0006,0.0012,0.0003,0.0018,0.0043,0.0052,0.0058,0.0061,0.0073,0.0081,0.0079,0.0077,0.0068,0.0065,0.0063,0,0,0,0,0,0,-0.0018,-0.0016,-0.0009,-0.0012,-0.0021,-0.0016,-0.002,-0.0011,-0.0006,0.0002,0.0027,0.0032,0.0033,0.0044,0.005,0.0064,0.0073,0.0072,0.0065,0.0062,0.006,0.0074,0.0087,0,0,0,0,0,-0.002,-0.0023,-0.0026,-0.003,-0.0035,-0.0028,-0.003,-0.0024,-0.002,-0.0016,-0.0004,0.0013,0.0027,0.0037,0.0042,0.0047,0.0076,0.0056,0.0054,0.0052,0.0064,0.0126,0.0131,0.0071,0.0071,0.0071,0,0,-0.0022,-0.0022,-0.0023,-0.0031,-0.0032,-0.0047,-0.0027,-0.0036,-0.0036,-0.0013,-0.0014,-0.0002,0.0022,0.0028,0.0031,0.0042,0.0075,0.005,0.0048,0.0061,0.0125,0.0131,0.0137,0.007,0.007,0.007,0,0,-0.0041,-0.003,-0.0045,-0.0055,-0.0065,-0.0061,-0.0067,-0.0071,-0.0059,-0.0071,-0.0042,-0.0022,-0.0024,0.0015,0.0033,0.0019,0.0054,0.001,0.0022,0.0082,0.0088,0.0095,0.0108,0.0116,0.0018,0.0018,0.0018,0,-0.0044,-0.0058,-0.0054,-0.0075,-0.0076,-0.007,-0.0085,-0.008,-0.0085,-0.0068,-0.0077,-0.0039,-0.0019,0.003,0.0023,0.002,0.0037,0.0035,0.0082,0.0089,0.0096,0.0109,0.0118,0.0018,0.0018,0.0018,0.0018,0,-0.0079,-0.0088,-0.0099,-0.0115,-0.0118,-0.0131,-0.0125,-0.0125,-0.0114,-0.01,-0.0072,-0.0048,-0.0015,-0.0007,0.0003,0.0061,0.0049,0.0068,0.0097,0.0102,0.0114,0.0123,0.0017,0.0017,0.0017,0.0017,0,0,-0.0087,-0.0116,-0.0119,-0.0128,-0.0134,-0.0142,-0.0136,-0.0122,-0.0107,-0.0101,-0.0072,-0.0034,-0.0011,0.001,0.0038,0.0091,0.014,0.0093,0.0097,0.0119,0.0236,0.0203,0.021,0.0168,0.017,0.0172,0.0214,0,-0.0113,-0.0155,-0.0152,-0.0177,-0.0194,-0.0172,-0.0167,-0.0148,-0.0129,-0.0109,-0.0049,-0.0028,-0.0006,0.0007,0.0069,0.0115,0.0168,0.0125,0.0218,0.022,0.0202,0.0222,0.0179,0.0222,0.0224,0.0225,0.0226,0,-0.0147,-0.0165,-0.0199,-0.0199,-0.0202,-0.0211,-0.0179,-0.0176,-0.0131,-0.0114,-0.0063,-0.0036,0.0037,0.005,0.0168,0.0133,0.0187,0.0228,0.0232,0.0219,0.0207,0.0223,0.0244,0.0242,0.0241,0.024,0.0239,0,-0.0164,-0.0191,-0.0213,-0.0218,-0.0226,-0.0218,-0.0211,-0.0176,-0.0164,-0.0118,-0.0106,-0.0021,0.0015,0.0105,0.0182,0.0176,0.0301,0.0308,0.0334,0.033,0.0353,0.0346,0.0413,0.0413,0.0413,0.0413,0.0413,0,-0.0192,-0.0209,-0.0226,-0.0244,-0.0256,-0.0241,-0.0244,-0.0221,-0.0186,-0.0166,-0.0111,-0.0073,0.0034,0.011,0.0184,0.0277,0.031,0.0343,0.0354,0.0338,0.033,0.0357,0.035,0.0415,0.0414,0.0414,0.0414,0,-0.0218,-0.0234,-0.0264,-0.0272,-0.0277,-0.0286,-0.0286,-0.0284,-0.0242,-0.0213,-0.02,-0.0108,-0.0012,0.0085,0.0223,0.0273,0.0366,0.0398,0.0344,0.0349,0.0348,0.034,0.0424,0.0423,0.0423,0.0423,0.0422,0,-0.0239,-0.0262,-0.0294,-0.032,-0.0331,-0.0346,-0.0359,-0.0325,-0.031,-0.0228,-0.0206,-0.0114,-0.0048,0.0108,0.0215,0.0343,0.0371,0.0402,0.0408,0.0354,0.0357,0.0349,0.0341,0.0422,0.0421,0.0421,0.0421,0,-0.0271,-0.0286,-0.0313,-0.0368,-0.0396,-0.0421,-0.042,-0.041,-0.0351,-0.0314,-0.0213,-0.0124,-0.0016,0.0103,0.0199,0.0299,0.0368,0.0398,0.04,0.0406,0.0353,0.0353,0.0346,0.042,0.042,0.042,0.042,0,-0.0293,-0.0321,-0.0363,-0.0408,-0.0454,-0.0473,-0.047,-0.0431,-0.0405,-0.029,-0.0257,-0.013,-0.0045,0.0082,0.0177,0.0258,0.0284,0.0306,0.0313,0.0316,0.0272,0.0188,0.0224,0,0,0,0,0,-0.0307,-0.0345,-0.0398,-0.0453,-0.0499,-0.0513,-0.05,-0.0479,-0.0412,-0.035,-0.0296,-0.0192,-0.0037,0.0037,0.0113,0.0159,0.0284,0.0249,0.0309,0.0412,0.0414,0.0379,0,0,0,0,0,0,-0.0323,-0.0373,-0.0402,-0.0479,-0.0518,-0.0556,-0.0544,-0.0496,-0.0444,-0.0364,-0.0282,-0.0198,-0.0053,-0.0093,0.0103,0.0132,0.0176,0.0334,0.0336,0.0411,0.0413,0.0414,0.0379,0,0,0,0,0]}]]